TITAN 3C TRANSTAGE DEB, 19595

Orbit data source: Space-Track

TITAN 3C TRANSTAGE DEB, 19595 is space debris in HEO originally from a launch on Tue, 21 Dec 1965 UTC launched from the Air Force Eastern Test Range (AFETR). Debris objects in space refer to the collection of defunct objects orbiting the Earth. Examples of debris include non-operational satellites, rocket bodies, and fragments generated from explosions, collisions, or faulty payload assembly.

Loading next visibility...
Identifier
19595, 1965-108AB
Orbit
HEO
Country
Flag of USUS
Related business
Manufacturer
Unknown
Mission
Spacecraft
Bus & Motor
Unknown
Mass
Unknown
Launch date (UTC)
1965-12-21 (60 years ago)
Launch vehicle
Unknown
Launch site
Air Force Eastern Test Range (AFETR)
Object type
Payload
Rocket body
Debris
Shape & HBR
Unknown shape, 0.2 m
Radar Cross Section
Small (<0.1 m²)

Expand to show TLE details & history
Last TLE update: 4 weeks ago

TLE from 4 weeks ago
0 TITAN 3C TRANSTAGE DEB
1 19595U 65108AB  25274.63560492  .00009431  00000-0  61536-2 0  9994
2 19595  27.0647 338.8925 5974124 226.8002  64.6388  4.00798017186632
Epoch: 2025-10-01T15:15Z
TLE epoch observation values (Epoch: 2025-10-01T15:15:16.265Z)
Latitude
0.00002°
Longitude
99.47595°
Altitude
11,849.201 km
Speed
4.464 km/s
True Right ascension
22h 35m 36s
True Declination
0° 00' 00"
Sunlit
Object was in daylight at epoch
Visualization orbit readout
Latitude
Unknown
Longitude
Unknown
Altitude
Unknown
Speed
Unknown
Apparent Right ascension
Unknown
Apparent Declination
Unknown
Sunlit
N/A
Visualization observer readout
Local Sidereal Time
05:17:03
Azimuth
Unknown
Elevation
Unknown
Doppler factor
Unknown
Orbital elements
Apogee altitude
20,369.989 km
Perigee altitude
363.055 km
Semi-major axis
16,744.659 km
Eccentricity
0.59741
Inclination
27.0647°
RAAN
338.8925°
Arg. of periapsis
226.8002°
True anomaly
133.211°
Mean anomaly
64.6388°
Eccentric anomaly
98.49268°
Mean motion
1.00168 °/min
Orbital period
359.4 mins
BSTAR
0.0061536
Loading maneuver chart data...
Computing Atmospheric mass density...

Documentation

Showing up to 5 results
|